This demonstration page uses our WeatherBlox Daily Observations layout. Learn more.

Left ArrowRight Arrow

38.80484, -77.04692

Hourly Observations for May 26, 2022

Temp ( °F °C ) Dew Point ( °F °C ) Humidity (%) Winds ( mph kmh ) Pressure ( in mb ) Visibility ( mi km ) Precip ( " mm )
12:52 am 00:52 Cloudy 63 17.2 48 8.9 58 58 SE 6 9 30.31 1026 10 16 0.00 0.00
1:52 am 01:52 Cloudy 62 16.7 48 8.9 60 60 ESE 6 9 30.29 1026 10 16 0.00 0.00
2:52 am 02:52 Cloudy 62 16.7 50 10 65 65 E 5 7 30.29 1026 10 16 0.00 0.00
3:10 am 03:10 Cloudy 62 16.7 50 10 65 65 SE 5 7 30.29 1026 10 16 0.00 0.00
3:33 am 03:33 Cloudy 62 16.7 51 10.6 67 67 ESE 6 9 30.28 1025 10 16 0.00 0.00
3:52 am 03:52 Cloudy 61 16.1 51 10.6 70 70 ESE 7 11 30.27 1025 10 16 0.00 0.00
4:52 am 04:52 Cloudy 62 16.7 51 10.6 67 67 ESE 5 7 30.26 1025 10 16 0.00 0.00
5:52 am 05:52 Cloudy 61 16.1 52 11.1 72 72 Calm 30.28 1025 10 16 0.00 0.00
6:52 am 06:52 Cloudy 61 16.1 53 11.7 75 75 SSE 5 7 30.29 1026 10 16 0.00 0.00
7:52 am 07:52 Cloudy 61 16.1 55 12.8 81 81 E 5 7 30.28 1026 10 16 0.00 0.00
8:07 am 08:07 Cloudy 61 16.1 55 12.8 81 81 VRB 3 6 30.29 1026 10 16 0.00 0.00
8:52 am 08:52 Cloudy 62 16.7 56 13.3 80 80 SE 3 6 30.28 1025 10 16 0.00 0.00
9:52 am 09:52 Cloudy 66 18.9 57 13.9 73 73 ENE 3 6 30.27 1025 10 16 0.00 0.00
9:59 am 09:59 Cloudy 66 18.9 57 13.9 73 73 Calm 30.27 1025 10 16 0.00 0.00
10:52 am 10:52 Cloudy 68 20 58 14.4 70 70 Calm 30.25 1024 10 16 0.00 0.00
11:52 am 11:52 Cloudy 69 20.6 59 15 70 70 S 3 6 30.24 1024 10 16 0.00 0.00
12:52 pm 12:52 Cloudy 69 20.6 61 16.1 76 76 S 5 7 30.23 1024 10 16 0.00 0.00
1:52 pm 13:52 Cloudy 71 21.7 61 16.1 71 71 S 6 9 30.20 1023 10 16 0.00 0.00
2:52 pm 14:52 Cloudy 72 22.2 62 16.7 71 71 S 7 11 30.17 1022 10 16 0.00 0.00
3:52 pm 15:52 Cloudy 72 22.2 63 17.2 73 73 SSW 7 11 30.14 1021 10 16 0.00 0.00
4:52 pm 16:52 Cloudy 72 22.2 64 17.8 76 76 S 6 9 30.12 1020 10 16 0.00 0.00
5:52 pm 17:52 Cloudy 72 22.2 64 17.8 76 76 SSE 8 13 30.11 1020 10 16 0.00 0.00
6:52 pm 18:52 Cloudy 72 22.2 65 18.3 79 79 SSE 10 17 30.11 1020 10 16 0.00 0.00
7:23 pm 19:23 Cloudy 71 21.7 64 17.8 79 79 SE 12 19 30.10 1019 10 16 0.00 0.00
7:47 pm 19:47 Cloudy 72 22 64 18 78 78 SSE 8 13 30.10 1019 10 16 0.00 0.00
7:52 pm 19:52 Cloudy 71 21.7 64 17.8 79 79 SE 10 17 30.09 1019 10 16 0.00 0.00
8:08 pm 20:08 Cloudy 70 21.1 64 17.8 82 82 SSE 8 13 30.10 1019 10 16 0.00 0.00
8:52 pm 20:52 Cloudy 70 21.1 64 17.8 82 82 SSE 8 13 30.09 1019 10 16 0.00 0.00
9:52 pm 21:52 Cloudy 69 20.6 64 17.8 84 84 SSE 7 11 30.09 1019 10 16 0.00 0.00
10:42 pm 22:42 Cloudy 69 20.6 65 18.3 87 87 SSE 7 11 30.09 1019 10 16 0.00 0.00
10:52 pm 22:52 Cloudy 69 20.6 65 18.3 87 87 SSE 8 13 30.09 1019 10 16 0.00 0.00
11:03 pm 23:03 Cloudy 69 20.6 65 18.3 87 87 SSE 7 11 30.08 1019 10 16 0.00 0.00
11:52 pm 23:52 Cloudy 69 20.6 65 18.3 87 87 SE 5 7 30.06 1018 10 16 0.00 0.00

Powered by AerisWeather